TimePDT,TemperatureF,Dew PointF,Humidity,Sea Level PressureIn,VisibilityMPH,Wind Direction,Wind SpeedMPH,Gust SpeedMPH,PrecipitationIn,Events,Conditions,WindDirDegrees,DateUTC
12:14 AM,26.6,21.2,80,29.97,10.0,WSW,5.8,-,N/A,,Clear,250,2013-03-22 07:14:00
12:58 AM,26.8,21.7,81,30.03,10.0,SSW,3.5,-,0.00,,Mostly Cloudy,200,2013-03-22 07:58:00
1:05 AM,26.6,21.2,80,29.96,10.0,South,4.6,-,N/A,,Scattered Clouds,180,2013-03-22 08:05:00
1:14 AM,26.6,21.2,80,29.96,10.0,South,5.8,-,N/A,,Partly Cloudy,190,2013-03-22 08:14:00
1:30 AM,24.8,21.2,86,29.97,10.0,SSW,5.8,-,N/A,,Clear,210,2013-03-22 08:30:00
1:39 AM,24.8,21.2,86,29.97,10.0,WSW,6.9,-,N/A,,Clear,250,2013-03-22 08:39:00
1:58 AM,24.3,20.8,87,30.05,10.0,WSW,5.8,-,0.00,,Clear,250,2013-03-22 08:58:00
2:58 AM,24.4,21.4,88,30.05,10.0,WNW,2.3,-,N/A,,Overcast,290,2013-03-22 09:58:00
3:11 AM,24.8,21.2,86,29.98,10.0,SE,4.6,-,N/A,,Mostly Cloudy,140,2013-03-22 10:11:00
3:24 AM,23.0,21.2,93,29.98,10.0,SE,4.6,-,N/A,,Scattered Clouds,140,2013-03-22 10:24:00
3:33 AM,23.0,21.2,93,29.98,10.0,SSE,3.5,-,N/A,,Partly Cloudy,150,2013-03-22 10:33:00
3:44 AM,23.0,21.2,93,29.98,10.0,SSE,4.6,-,N/A,,Scattered Clouds,150,2013-03-22 10:44:00
3:58 AM,23.0,20.8,91,30.06,10.0,South,3.5,-,0.00,,Mostly Cloudy,180,2013-03-22 10:58:00
4:58 AM,23.2,20.8,91,30.06,10.0,SW,2.3,-,N/A,,Partly Cloudy,230,2013-03-22 11:58:00
5:20 AM,23.0,21.2,93,30.00,10.0,SSE,2.3,-,N/A,,Scattered Clouds,150,2013-03-22 12:20:00
5:33 AM,23.0,21.2,93,30.00,10.0,SSW,3.5,-,N/A,,Mostly Cloudy,210,2013-03-22 12:33:00
5:58 AM,23.0,21.0,92,30.09,10.0,South,3.5,-,0.00,,Overcast,170,2013-03-22 12:58:00
6:49 AM,23.0,21.2,93,30.02,10.0,SE,2.3,-,N/A,,Mostly Cloudy,130,2013-03-22 13:49:00
6:50 AM,23.0,21.2,93,30.02,10.0,SE,3.5,-,N/A,,Mostly Cloudy,130,2013-03-22 13:50:00
6:58 AM,23.2,21.2,92,30.11,9.0,SE,3.5,-,0.00,Snow,Light Snow,140,2013-03-22 13:58:00
7:07 AM,23.0,21.2,93,30.03,9.0,South,2.3,-,N/A,Snow,Light Snow,170,2013-03-22 14:07:00
7:30 AM,23.0,21.2,93,30.03,10.0,SSE,6.9,-,N/A,,Scattered Clouds,150,2013-03-22 14:30:00
7:58 AM,22.1,21.0,96,30.13,10.0,SSE,4.6,-,0.00,,Clear,160,2013-03-22 14:58:00
8:21 AM,24.8,23.0,93,30.05,10.0,South,3.5,-,N/A,,Partly Cloudy,180,2013-03-22 15:21:00
8:30 AM,24.8,23.0,93,30.05,10.0,South,4.6,-,N/A,,Mostly Cloudy,170,2013-03-22 15:30:00
8:38 AM,24.8,23.0,93,30.05,10.0,South,4.6,-,N/A,,Mostly Cloudy,170,2013-03-22 15:38:00
8:58 AM,25.7,24.1,94,30.15,10.0,South,6.9,-,N/A,,Overcast,180,2013-03-22 15:58:00
8:59 AM,24.8,24.8,100,30.06,10.0,South,6.9,-,N/A,,Mostly Cloudy,180,2013-03-22 15:59:00
9:19 AM,26.6,24.8,93,30.06,10.0,SSE,6.9,-,N/A,,Mostly Cloudy,160,2013-03-22 16:19:00
9:39 AM,26.6,24.8,93,30.07,10.0,South,4.6,-,N/A,,Mostly Cloudy,180,2013-03-22 16:39:00
9:50 AM,26.6,24.8,93,30.07,10.0,SSE,3.5,-,N/A,,Scattered Clouds,160,2013-03-22 16:50:00
9:58 AM,27.7,25.3,91,30.16,10.0,Variable,2.3,-,N/A,,Scattered Clouds,0,2013-03-22 16:58:00
10:53 AM,33.8,24.8,70,30.08,10.0,SW,4.6,-,N/A,,Clear,230,2013-03-22 17:53:00
10:58 AM,33.8,25.0,70,30.16,10.0,South,3.5,-,0.00,,Clear,190,2013-03-22 17:58:00
11:17 AM,35.6,24.8,65,30.08,10.0,Variable,2.3,-,N/A,,Clear,0,2013-03-22 18:17:00
11:33 AM,35.6,19.4,52,30.09,10.0,West,3.5,-,N/A,,Partly Cloudy,260,2013-03-22 18:33:00
11:44 AM,35.6,19.4,52,30.09,10.0,Variable,4.6,-,N/A,,Scattered Clouds,0,2013-03-22 18:44:00
11:58 AM,36.7,20.1,51,30.17,10.0,SSW,4.6,-,0.00,,Scattered Clouds,210,2013-03-22 18:58:00
11:59 AM,37.4,21.2,52,30.09,10.0,Variable,6.9,-,N/A,,Light Drizzle,0,2013-03-22 18:59:00
12:31 PM,37.4,19.4,48,30.09,10.0,Variable,2.3,-,N/A,,Partly Cloudy,0,2013-03-22 19:31:00
12:42 PM,39.2,21.2,49,30.09,10.0,Variable,4.6,-,N/A,,Light Drizzle,0,2013-03-22 19:42:00
12:58 PM,39.4,20.8,47,30.16,10.0,Variable,3.5,-,0.00,,Light Drizzle,0,2013-03-22 19:58:00
12:59 PM,39.2,19.4,45,30.09,10.0,WSW,5.8,-,N/A,,Mostly Cloudy,250,2013-03-22 19:59:00
1:13 PM,39.2,19.4,45,30.09,10.0,WSW,9.2,-,N/A,,Light Drizzle,240,2013-03-22 20:13:00
1:32 PM,39.2,21.2,49,30.08,10.0,WNW,5.8,-,N/A,,Mostly Cloudy,290,2013-03-22 20:32:00
1:58 PM,38.7,16.9,41,30.16,10.0,West,4.6,-,0.00,,Mostly Cloudy,260,2013-03-22 20:58:00
1:59 PM,39.2,17.6,42,30.08,10.0,West,5.8,-,N/A,,Light Drizzle,260,2013-03-22 20:59:00
2:20 PM,37.4,21.2,52,30.09,10.0,West,9.2,-,N/A,,Partly Cloudy,260,2013-03-22 21:20:00
2:58 PM,37.2,17.6,45,30.17,10.0,WSW,11.5,-,0.00,,Mostly Cloudy,250,2013-03-22 21:58:00
3:03 PM,37.4,17.6,45,30.09,10.0,West,13.8,-,N/A,,Partly Cloudy,270,2013-03-22 22:03:00
3:33 PM,37.4,17.6,45,30.09,10.0,WSW,11.5,-,N/A,,Partly Cloudy,250,2013-03-22 22:33:00
3:49 PM,37.4,19.4,48,30.10,10.0,WNW,17.3,-,N/A,,Mostly Cloudy,290,2013-03-22 22:49:00
3:52 PM,35.6,19.4,52,30.11,10.0,NW,17.3,25.3,N/A,Snow,Light Snow,310,2013-03-22 22:52:00
3:56 PM,35.6,17.6,48,30.11,10.0,NW,17.3,25.3,N/A,Snow,Light Snow,310,2013-03-22 22:56:00
3:58 PM,35.6,17.4,48,30.19,10.0,WNW,16.1,25.3,0.00,Snow,Light Snow,300,2013-03-22 22:58:00
4:07 PM,35.6,15.8,44,30.10,10.0,West,10.4,-,N/A,,Overcast,260,2013-03-22 23:07:00
4:58 PM,38.3,18.9,46,30.19,10.0,WSW,9.2,-,0.00,,Clear,240,2013-03-22 23:58:00
5:58 PM,36.1,20.8,54,30.19,10.0,West,8.1,-,N/A,,Scattered Clouds,260,2013-03-23 00:58:00
6:55 PM,33.8,19.4,56,30.13,10.0,NW,8.1,-,N/A,,Clear,310,2013-03-23 01:55:00
6:58 PM,34.0,18.9,54,30.22,10.0,NW,5.8,-,0.00,,Clear,310,2013-03-23 01:58:00
7:06 PM,32.0,19.4,60,30.14,10.0,NW,5.8,-,N/A,,Clear,320,2013-03-23 02:06:00
7:58 PM,33.4,18.1,54,30.24,10.0,WSW,3.5,-,0.00,,Partly Cloudy,250,2013-03-23 02:58:00
8:34 PM,32.0,19.4,60,30.16,10.0,SW,6.9,-,N/A,,Partly Cloudy,220,2013-03-23 03:34:00
8:48 PM,28.4,21.2,74,30.16,10.0,SSW,8.1,-,N/A,,Scattered Clouds,210,2013-03-23 03:48:00
8:58 PM,29.1,20.1,69,30.26,10.0,SSW,5.8,-,0.00,,Mostly Cloudy,210,2013-03-23 03:58:00
9:19 PM,28.4,21.2,74,30.16,10.0,SSW,3.5,-,N/A,,Partly Cloudy,200,2013-03-23 04:19:00
9:30 PM,28.4,21.2,74,30.17,10.0,SW,5.8,-,N/A,,Partly Cloudy,220,2013-03-23 04:30:00
9:58 PM,28.4,20.8,73,30.27,10.0,West,5.8,-,0.00,,Clear,260,2013-03-23 04:58:00